weather.gov     
National Weather Service

Regional Weather Roundup
NWS Homepage
This page is being discontinued on March 12, 2014.
The same data is available at this site. Please update your bookmarks.
Thank you, and we apologize for the inconvenience.
Please send an email to SR-SRH.Webmaster@noaa.gov with any concerns.


Current Version
Previous Version:    01  02  03  04  05  06  07  08  09  10  11  12  13  14  15  16  17  18  19  20  21  22  23  24  25  26  
[Printable]
346
ASUS44 KLZK 231005
RWRLZK

WEATHER ROUNDUP FOR ARKANSAS
NATIONAL WEATHER SERVICE LITTLE ROCK AR
500 AM CDT THU OCT 23 2014

NOTE: "FAIR" INDICATES FEW OR NO CLOUDS BELOW 12,000 FEET WITH NO
SIGNIFICANT WEATHER AND/OR OBSTRUCTIONS TO VISIBILITY.

ARZ001-003-010-029-231100-
NORTHWEST ARKANSAS

CITY           SKY/WX    TMP DP  RH WIND       PRES   REMARKS
FAYETTEVILLE   CLOUDY    51  50  96 W5        30.16S
FORT SMITH     CLOUDY    55  49  80 E9        30.16R
HARRISON       CLOUDY    48  47  96 SE5       30.17S
BENTONVILLE    CLOUDY    55  48  76 CALM      30.15F
ROGERS         CLOUDY    54  49  83 E5        30.16F
SILOAM SPGS    CLOUDY    55  46  71 CALM      30.15F
HIGHFILL       CLOUDY    55  51  86 CALM      30.15S
$$

ARZ004-005-016-231100-
NORTH CENTRAL ARKANSAS

CITY           SKY/WX    TMP DP  RH WIND       PRES   REMARKS
BATESVILLE     PTCLDY    43  39  87 CALM      30.20R
FLIPPIN        MOCLDY    43  37  81 CALM      30.19R
MTN HOME       MOCLDY    47  43  86 CALM      30.17F
$$

ARZ040-041-231100-
WEST CENTRAL ARKANSAS

CITY           SKY/WX    TMP DP  RH WIND       PRES   REMARKS
MENA           CLOUDY    54  52  94 CALM      30.17F
MOUNT IDA      CLOUDY    49  47  93 CALM      30.16R
$$

ARZ009-017-025-026-028-231100-
NORTHEAST ARKANSAS

CITY           SKY/WX    TMP DP  RH WIND       PRES   REMARKS
CORNING        FAIR      43  41  93 N3        30.21S
JONESBORO      CLEAR     46  43  89 N3        30.20R
NEWPORT        PTCLDY    42  42 100 N6        30.21R
WALNUT RIDGE   PTCLDY    43  37  81 NW6       30.20R
BLYTHEVILLE    CLEAR     42  40  92 E5        30.19S
$$

ARZ022-023-033-042-044-231100-
CENTRAL ARKANSAS

CITY           SKY/WX    TMP DP  RH WIND       PRES   REMARKS
LITTLE ROCK    MOCLDY    50  42  74 CALM      30.19R
N LITTLE ROCK    N/A     49  45  85 E5        30.19R
JACKSONVILLE   PTCLDY    42  40  92 CALM      30.18R
SEARCY         PTCLDY    43  42  97 CALM      30.20S
HOT SPRINGS    CLOUDY    49  45  86 CALM      30.17R
RUSSELLVILLE   CLOUDY    49  46  90 W3        30.19R
$$

ARZ036-231100-
EAST ARKANSAS

CITY           SKY/WX    TMP DP  RH WIND       PRES   REMARKS
WEST MEMPHIS   PTCLDY    43  43 100 CALM      30.18R
$$

ARZ050-053-066-070-073-231100-
SOUTHWEST ARKANSAS

CITY           SKY/WX    TMP DP  RH WIND       PRES   REMARKS
ARKADELPHIA    LGT RAIN  50  48  92 NE3       30.16F
CAMDEN         CLOUDY    46  45  93 CALM      30.16S
TEXARKANA      CLOUDY    53  50  89 CALM      30.15R
EL DORADO      CLOUDY    48  46  93 CALM      30.15S
DE QUEEN       CLOUDY    54  51  90 CALM      30.14S
$$

ARZ056-057-069-231100-
SOUTHEAST ARKANSAS

CITY           SKY/WX    TMP DP  RH WIND       PRES   REMARKS
PINE BLUFF     CLOUDY    48  44  86 NW3       30.17R
STUTTGART      FAIR      46  43  87 CALM      30.18R
MONTICELLO     CLOUDY    47  44  90 CALM      30.16R

$$






U.S. Dept. of Commerce
NOAA National Weather Service
1325 East West Highway
Silver Spring, MD 20910
E-mail: w-nws.webmaster@noaa.gov
Page last modified: May 16, 2007
NATIONAL WEATHER SERVICE: for Safety, for Work, for Fun - FOR LIFE